FW0954 Weather Reports


Display with metric or nautical units.
time (UTC)temp
F
wind
direction
speed
MPH
gust
MPH
rain 1hr
in
rain 24hr
in
rain mn
in
humidity
%
barometer
mb
20220522132502 61 38 1.0 5.0 0.00 0.01 0.00 77 1023.8
20220522132002 62 25 1.0 4.0 0.00 0.01 0.00 76 1023.7
20220522131503 62 24 0.0 4.0 0.00 0.01 0.00 76 1023.5
20220522131002 62 48 0.0 4.0 0.00 0.01 0.00 77 1023.5
20220522130502 62 34 1.0 4.0 0.00 0.01 0.00 76 1023.5
20220522130003 62 30 1.0 4.0 0.00 0.01 0.00 76 1023.4
20220522125502 62 29 1.0 4.0 0.00 0.01 0.00 76 1023.1
20220522125003 62 24 1.0 3.0 0.00 0.01 0.00 76 1023.2
20220522124502 62 24 1.0 3.0 0.00 0.01 0.00 76 1023.2
20220522124003 62 23 0.0 3.0 0.00 0.01 0.00 76 1022.7
20220522123502 62 34 1.0 5.0 0.00 0.01 0.00 76 1022.3
20220522123002 62 32 1.0 5.0 0.00 0.01 0.00 75 1022.2
20220522122503 62 34 1.0 4.0 0.00 0.01 0.00 75 1022.3
20220522122003 62 36 1.0 4.0 0.00 0.01 0.00 75 1022.2
20220522121502 62 37 1.0 3.0 0.00 0.01 0.00 75 1022.3
20220522121002 62 41 1.0 4.0 0.00 0.01 0.00 75 1022.2
20220522120503 62 35 1.0 4.0 0.00 0.01 0.00 74 1022.3
20220522120003 62 32 1.0 4.0 0.00 0.01 0.00 74 1022.4
20220522115503 62 34 1.0 4.0 0.00 0.01 0.00 74 1022.2
20220522115003 62 42 1.0 4.0 0.00 0.01 0.00 74 1022.0
20220522114502 62 44 1.0 5.0 0.00 0.01 0.00 73 1022.0
20220522114003 63 35 1.0 5.0 0.00 0.01 0.00 73 1022.0
20220522113502 63 38 1.0 3.0 0.00 0.01 0.00 73 1021.9
20220522113003 63 48 0.0 3.0 0.00 0.01 0.00 73 1022.1
20220522112502 63 36 0.0 2.0 0.00 0.01 0.00 73 1022.0
20220522112003 63 47 1.0 3.0 0.00 0.01 0.00 73 1021.9
20220522111502 63 47 1.0 4.0 0.00 0.01 0.00 73 1021.8
20220522111002 63 36 1.0 4.0 0.00 0.01 0.00 72 1021.7
20220522110503 63 36 1.0 4.0 0.00 0.01 0.00 72 1022.0
20220522110003 63 56 1.0 3.0 0.00 0.01 0.00 73 1022.0
20220522105502 63 53 1.0 4.0 0.00 0.01 0.00 73 1021.9
20220522105003 63 50 2.0 6.0 0.00 0.01 0.00 73 1021.9
20220522104502 63 52 1.0 6.0 0.00 0.01 0.00 72 1021.7
20220522104002 63 39 1.0 4.0 0.00 0.01 0.00 72 1021.8
20220522103502 63 28 0.0 4.0 0.00 0.01 0.00 72 1021.7
20220522103003 63 65 0.0 2.0 0.00 0.01 0.00 73 1021.7
20220522102503 63 64 0.0 2.0 0.00 0.01 0.00 72 1021.8
20220522102002 63 66 0.0 2.0 0.00 0.01 0.00 72 1021.8
20220522101502 63 75 0.0 1.0 0.00 0.01 0.00 72 1021.6
20220522101002 63 91 0.0 2.0 0.00 0.01 0.00 72 1021.3
20220522100503 63 72 0.0 2.0 0.00 0.01 0.00 72 1021.1
20220522100003 63 52 0.0 2.0 0.00 0.01 0.00 72 1020.9
20220522095503 63 39 0.0 3.0 0.00 0.01 0.00 72 1020.6
20220522095002 63 31 1.0 5.0 0.00 0.01 0.00 72 1020.3
20220522094502 63 30 1.0 5.0 0.00 0.01 0.00 72 1020.2
20220522094003 63 32 1.0 4.0 0.00 0.01 0.00 72 1020.3
20220522093502 63 44 1.0 4.0 0.00 0.01 0.00 72 1020.5
20220522093003 63 36 2.0 5.0 0.00 0.01 0.00 72 1020.2
20220522092502 63 35 2.0 5.0 0.00 0.01 0.00 72 1020.0
20220522092002 63 36 1.0 4.0 0.00 0.01 0.00 72 1019.9
20220522091503 63 31 2.0 4.0 0.00 0.01 0.00 73 1019.8
20220522091003 63 38 1.0 6.0 0.00 0.01 0.00 73 1019.8
20220522090502 63 35 2.0 6.0 0.00 0.01 0.00 73 1019.5
20220522090003 63 31 2.0 5.0 0.00 0.01 0.00 73 1019.3
20220522085502 63 33 2.0 5.0 0.00 0.01 0.00 73 1019.1
20220522085003 63 33 3.0 6.0 0.00 0.01 0.00 73 1018.7
20220522084502 63 32 2.0 7.0 0.00 0.01 0.00 73 1018.7
20220522084003 63 41 2.0 7.0 0.00 0.01 0.00 73 1018.7
20220522083502 63 37 2.0 7.0 0.00 0.01 0.00 73 1018.6
20220522083003 63 31 2.0 7.0 0.00 0.01 0.00 73 1018.5
20220522082503 63 36 1.0 6.0 0.00 0.01 0.00 73 1018.6
20220522082002 63 36 2.0 8.0 0.00 0.01 0.00 74 1019.0
20220522081503 63 37 2.0 8.0 0.00 0.01 0.00 73 1019.1
20220522081003 63 40 1.0 5.0 0.00 0.01 0.00 73 1018.9
20220522080502 63 40 1.0 5.0 0.00 0.01 0.00 73 1018.9
20220522080002 63 34 2.0 6.0 0.00 0.01 0.00 73 1019.1
20220522075503 63 28 2.0 6.0 0.00 0.01 0.00 72 1019.0
20220522075002 63 21 1.0 5.0 0.00 0.01 0.00 72 1019.3
20220522074502 64 24 1.0 4.0 0.00 0.01 0.00 72 1019.3
20220522074002 64 32 1.0 5.0 0.00 0.01 0.00 72 1019.7
20220522073502 64 24 1.0 5.0 0.00 0.01 0.00 72 1019.7
20220522073003 64 33 1.0 3.0 0.00 0.01 0.00 72 1019.7
20220522072502 64 44 1.0 3.0 0.00 0.01 0.00 71 1019.6
20220522072003 64 41 1.0 3.0 0.00 0.01 0.00 71 1019.4
20220522071502 64 30 1.0 4.0 0.00 0.01 0.00 71 1019.7
20220522071002 64 36 2.0 4.0 0.00 0.01 0.00 71 1019.6
20220522070502 64 42 1.0 4.0 0.00 0.01 0.00 71 1019.3
20220522070003 64 39 1.0 7.0 0.00 0.01 0.00 71 1019.2
20220522065502 64 35 1.0 7.0 0.00 0.01 0.00 71 1019.0
20220522065002 64 28 1.0 4.0 0.00 0.01 0.00 71 1018.9
20220522064503 64 32 2.0 5.0 0.00 0.01 0.00 71 1018.9
20220522064002 64 34 2.0 5.0 0.00 0.01 0.00 71 1019.0
20220522063503 64 33 2.0 6.0 0.00 0.01 0.00 71 1019.0
20220522063003 64 36 2.0 6.0 0.00 0.01 0.00 71 1019.0
20220522062503 64 42 2.0 7.0 0.00 0.01 0.00 71 1019.2
20220522062002 64 34 2.0 7.0 0.00 0.01 0.00 71 1019.2
20220522061502 64 26 2.0 6.0 0.00 0.01 0.00 71 1019.2
20220522061003 64 25 2.0 6.0 0.00 0.01 0.00 71 1019.0
20220522060502 64 25 2.0 5.0 0.00 0.01 0.00 71 1018.9
20220522060003 64 27 1.0 4.0 0.00 0.01 0.00 71 1018.8
20220522055502 64 28 1.0 4.0 0.00 0.01 0.00 72 1018.8
20220522055003 64 19 1.0 4.0 0.00 0.01 0.00 72 1018.9
20220522054502 64 20 2.0 6.0 0.00 0.01 0.00 72 1018.7
20220522054003 64 31 2.0 6.0 0.00 0.01 0.00 72 1018.7
20220522053502 64 40 1.0 4.0 0.00 0.01 0.00 72 1018.7
20220522053003 64 40 1.0 6.0 0.00 0.01 0.00 72 1018.7
20220522052502 63 31 2.0 6.0 0.00 0.01 0.00 72 1018.7
20220522052003 63 33 1.0 5.0 0.00 0.01 0.00 71 1018.5
20220522051502 63 45 1.0 5.0 0.00 0.01 0.00 73 1018.7
20220522051002 63 39 1.0 5.0 0.00 0.01 0.00 72 1018.9
20220522050502 63 38 1.0 3.0 0.00 0.01 0.00 73 1019.0
20220522050004 63 32 1.0 4.0 0.00 0.01 0.00 73 1019.1
20220522045502 63 31 1.0 4.0 0.00 0.01 0.01 74 1019.4
20220522045003 63 30 1.0 4.0 0.00 0.01 0.01 74 1019.4
20220522044502 63 33 1.0 4.0 0.00 0.01 0.01 74 1018.8
20220522044002 63 41 1.0 5.0 0.00 0.01 0.01 75 1018.5
20220522043502 63 44 1.0 5.0 0.00 0.01 0.01 76 1018.2
20220522043003 63 52 1.0 5.0 0.00 0.01 0.01 77 1018.2
20220522042502 63 61 1.0 4.0 0.00 0.01 0.01 78 1018.4
20220522042002 63 58 1.0 7.0 0.00 0.01 0.01 78 1018.5
20220522041502 63 55 1.0 7.0 0.00 0.01 0.01 79 1018.3
20220522041002 63 40 2.0 6.0 0.00 0.01 0.01 80 1017.5
20220522040503 62 34 2.0 6.0 0.00 0.01 0.01 80 1017.2
20220522040003 62 38 2.0 5.0 0.00 0.01 0.01 80 1017.3
20220522035502 62 43 2.0 8.0 0.00 0.01 0.01 80 1017.2
20220522035002 62 33 3.0 9.0 0.00 0.01 0.01 81 1017.1
20220522034503 62 22 2.0 9.0 0.00 0.01 0.01 81 1016.9
20220522034002 62 30 1.0 3.0 0.00 0.01 0.01 83 1017.0
20220522033502 62 34 0.0 2.0 0.01 0.01 0.01 84 1017.1
20220522033003 62 0 0.0 0.0 0.01 0.01 0.01 84 1017.3
20220522032502 62 151 0.0 3.0 0.01 0.01 0.01 84 1018.0
20220522032003 62 64 1.0 3.0 0.01 0.01 0.01 84 1018.1
20220522031503 62 30 2.0 5.0 0.01 0.01 0.01 84 1017.2
20220522031002 62 28 3.0 7.0 0.01 0.01 0.01 84 1016.7
20220522030503 62 29 2.0 8.0 0.01 0.01 0.01 85 1016.6
20220522030002 62 26 2.0 8.0 0.01 0.01 0.01 85 1016.5
20220522025503 62 21 1.0 7.0 0.01 0.01 0.01 85 1016.3
20220522025003 63 25 1.0 3.0 0.01 0.01 0.01 85 1016.7
20220522024503 63 26 0.0 4.0 0.01 0.01 0.01 83 1017.1
20220522024002 64 10 1.0 5.0 0.00 0.00 0.00 82 1017.2
20220522023502 64 8 1.0 8.0 0.00 0.00 0.00 80 1017.0
20220522023003 64 3 1.0 8.0 0.00 0.00 0.00 80 1016.8
20220522022503 64 13 2.0 5.0 0.00 0.00 0.00 80 1016.5
20220522022002 64 21 2.0 5.0 0.00 0.00 0.00 80 1016.5
20220522021502 64 25 2.0 4.0 0.00 0.00 0.00 79 1016.3
20220522021003 64 18 2.0 5.0 0.00 0.00 0.00 79 1016.5
20220522020502 64 22 2.0 5.0 0.00 0.00 0.00 79 1016.5
20220522020002 64 30 2.0 4.0 0.00 0.00 0.00 81 1016.6
20220522015503 64 21 2.0 5.0 0.00 0.00 0.00 80 1016.2
20220522015002 65 5 1.0 5.0 0.00 0.00 0.00 80 1016.1
20220522014503 65 8 1.0 6.0 0.00 0.00 0.00 80 1016.2
20220522014002 65 15 2.0 7.0 0.00 0.00 0.00 80 1016.3
20220522013503 65 17 2.0 9.0 0.00 0.00 0.00 80 1016.0
20220522013003 65 27 2.0 9.0 0.00 0.00 0.00 80 1015.4
20220522012503 65 25 2.0 10.0 0.00 0.00 0.00 80 1015.0
20220522012003 66 27 2.0 10.0 0.00 0.00 0.00 80 1014.7
20220522011503 66 29 2.0 4.0 0.00 0.00 0.00 80 1014.7
20220522011002 66 24 2.0 6.0 0.00 0.00 0.00 80 1014.8
20220522010502 66 21 2.0 6.0 0.00 0.00 0.00 79 1015.0
20220522010003 67 20 2.0 6.0 0.00 0.00 0.00 78 1014.8
20220522005502 67 23 2.0 6.0 0.00 0.00 0.00 79 1015.0
20220522005002 68 14 2.0 5.0 0.00 0.00 0.00 78 1014.8
20220522004503 68 19 2.0 5.0 0.00 0.00 0.00 78 1014.6
20220522004002 69 25 2.0 6.0 0.00 0.00 0.00 77 1014.5
20220522003503 69 16 2.0 6.0 0.00 0.00 0.00 77 1014.4
20220522003002 70 20 2.0 4.0 0.00 0.00 0.00 76 1014.6
20220522002502 70 31 1.0 4.0 0.00 0.00 0.00 76 1014.5
20220522002003 71 25 2.0 6.0 0.00 0.00 0.00 75 1014.7
20220522001502 72 15 2.0 7.0 0.00 0.00 0.00 74 1014.7
20220522001002 73 18 2.0 7.0 0.00 0.00 0.00 73 1014.7
20220522000503 74 35 1.0 5.0 0.00 0.00 0.00 73 1014.5
20220522000002 74 44 1.0 4.0 0.00 0.00 0.00 72 1014.6
20220521235502 75 24 1.0 7.0 0.00 0.00 0.00 72 1014.2
20220521235003 75 11 2.0 7.0 0.00 0.00 0.00 72 1014.0
20220521234502 76 2 2.0 6.0 0.00 0.00 0.00 71 1014.0
20220521234002 77 14 2.0 6.0 0.00 0.00 0.00 71 1013.7
20220521233503 77 35 2.0 7.0 0.00 0.00 0.00 70 1013.3
20220521233003 78 34 2.0 7.0 0.00 0.00 0.00 71 1013.1
20220521232502 78 21 2.0 6.0 0.00 0.00 0.00 70 1013.1
20220521232002 79 7 2.0 6.0 0.00 0.00 0.00 70 1013.1
20220521231503 79 13 2.0 6.0 0.00 0.00 0.00 70 1013.2
20220521231003 80 25 2.0 6.0 0.00 0.00 0.00 70 1013.0
20220521230502 80 23 2.0 7.0 0.00 0.00 0.00 69 1012.6
20220521230002 81 5 2.0 7.0 0.00 0.00 0.00 69 1012.5
20220521225502 81 353 2.0 7.0 0.00 0.00 0.00 69 1012.4
20220521225003 82 19 2.0 6.0 0.00 0.00 0.00 69 1012.2
20220521224502 83 37 2.0 6.0 0.00 0.00 0.00 68 1012.0
20220521224002 83 36 2.0 4.0 0.00 0.00 0.00 68 1011.8
20220521223503 84 29 2.0 5.0 0.00 0.00 0.00 69 1011.6
20220521223002 84 26 2.0 5.0 0.00 0.00 0.00 68 1011.4
20220521222502 84 19 2.0 6.0 0.00 0.00 0.00 68 1011.4
20220521222003 85 13 2.0 6.0 0.00 0.00 0.00 68 1011.4
20220521221504 86 16 2.0 5.0 0.00 0.00 0.00 67 1011.4
20220521221003 86 22 2.0 5.0 0.00 0.00 0.00 68 1011.4
20220521220503 87 26 2.0 5.0 0.00 0.00 0.00 67 1011.2
20220521220002 87 28 2.0 4.0 0.00 0.00 0.00 68 1011.3
20220521215503 88 353 1.0 7.0 0.00 0.00 0.00 67 1011.2
20220521215003 90 307 1.0 7.0 0.00 0.00 0.00 66 1011.2
20220521214503 91 316 1.0 6.0 0.00 0.00 0.00 64 1011.3
20220521214003 92 157 1.0 5.0 0.00 0.00 0.00 62 1011.3
20220521213502 92 166 3.0 6.0 0.00 0.00 0.00 61 1011.3
20220521213002 92 172 2.0 6.0 0.00 0.00 0.00 61 1011.2
20220521212502 92 168 1.0 5.0 0.00 0.00 0.00 60 1011.1
20220521212003 92 152 1.0 5.0 0.00 0.00 0.00 61 1011.2
20220521211503 92 151 1.0 5.0 0.00 0.00 0.00 62 1011.2
20220521211003 92 159 2.0 4.0 0.00 0.00 0.00 61 1011.2
20220521210502 92 168 2.0 4.0 0.00 0.00 0.00 59 1011.3
20220521210003 92 171 2.0 5.0 0.00 0.00 0.00 59 1011.3
20220521205502 92 176 2.0 6.0 0.00 0.00 0.00 58 1011.4
20220521205003 92 175 3.0 6.0 0.00 0.00 0.00 58 1011.3
20220521204502 92 169 3.0 6.0 0.00 0.00 0.00 58 1011.3
20220521204003 92 174 2.0 7.0 0.00 0.00 0.00 58 1011.4
20220521203502 92 173 3.0 7.0 0.00 0.00 0.00 58 1011.3
20220521203002 92 177 3.0 8.0 0.00 0.00 0.00 59 1011.4
20220521202503 92 186 3.0 8.0 0.00 0.00 0.00 59 1011.4
20220521202002 92 179 2.0 6.0 0.00 0.00 0.00 60 1011.4
20220521201503 92 170 1.0 6.0 0.00 0.00 0.00 59 1011.4
20220521201002 92 170 2.0 9.0 0.00 0.00 0.00 61 1011.4
20220521200503 92 166 3.0 9.0 0.00 0.00 0.00 60 1011.4
20220521200003 92 167 3.0 7.0 0.00 0.00 0.00 59 1011.4
20220521195502 92 175 2.0 7.0 0.00 0.00 0.00 61 1011.4
20220521195003 92 171 2.0 7.0 0.00 0.00 0.00 60 1011.4
20220521194503 92 172 2.0 7.0 0.00 0.00 0.00 59 1011.5
20220521194002 92 186 2.0 7.0 0.00 0.00 0.00 59 1011.6
20220521193502 92 179 2.0 8.0 0.00 0.00 0.00 59 1011.5
20220521193003 92 175 3.0 8.0 0.00 0.00 0.00 60 1011.5
20220521192502 92 178 4.0 10.0 0.00 0.00 0.00 60 1011.4
20220521192003 92 169 4.0 10.0 0.00 0.00 0.00 59 1011.5
20220521191502 92 177 2.0 10.0 0.00 0.00 0.00 59 1011.5
20220521191003 92 189 3.0 9.0 0.00 0.00 0.00 58 1011.4
20220521190503 93 179 4.0 11.0 0.00 0.00 0.00 58 1011.4
20220521190002 92 179 5.0 11.0 0.00 0.00 0.00 59 1011.4
20220521185503 92 184 5.0 10.0 0.00 0.00 0.00 60 1011.3
20220521185002 92 177 5.0 9.0 0.00 0.00 0.00 60 1011.4
20220521184503 92 175 4.0 13.0 0.00 0.00 0.00 61 1011.4
20220521184002 92 202 4.0 13.0 0.00 0.00 0.00 61 1011.4
20220521183503 92 198 4.0 11.0 0.00 0.00 0.00 61 1011.4
20220521183002 92 176 4.0 11.0 0.00 0.00 0.00 60 1011.4
20220521182502 92 178 5.0 12.0 0.00 0.00 0.00 61 1011.3
20220521182003 92 181 5.0 12.0 0.00 0.00 0.00 60 1011.4
20220521181503 92 172 3.0 10.0 0.00 0.00 0.00 61 1011.5
20220521181003 92 179 4.0 11.0 0.00 0.00 0.00 61 1011.5
20220521180502 91 194 4.0 11.0 0.00 0.00 0.00 61 1011.6
20220521180002 91 190 3.0 10.0 0.00 0.00 0.00 62 1011.6
20220521175503 91 191 3.0 11.0 0.00 0.00 0.00 63 1011.7
20220521175002 90 198 4.0 11.0 0.00 0.00 0.00 63 1011.8
20220521174503 90 181 4.0 10.0 0.00 0.00 0.00 64 1011.7
20220521174002 90 171 4.0 10.0 0.00 0.00 0.00 63 1011.8
20220521173502 90 184 5.0 9.0 0.00 0.00 0.00 63 1011.8
20220521173003 90 181 5.0 13.0 0.00 0.00 0.00 64 1011.8
20220521172503 89 172 5.0 13.0 0.00 0.00 0.00 64 1011.7
20220521172002 89 183 4.0 11.0 0.00 0.00 0.00 64 1011.6
20220521171503 89 196 4.0 10.0 0.00 0.00 0.00 66 1011.7
20220521171002 88 182 5.0 10.0 0.00 0.00 0.00 66 1011.7
20220521170502 88 182 4.0 9.0 0.00 0.00 0.00 65 1011.6
20220521170003 88 185 4.0 11.0 0.00 0.00 0.00 65 1011.6
20220521165502 88 189 4.0 11.0 0.00 0.00 0.00 66 1011.6
20220521165002 88 190 4.0 9.0 0.00 0.00 0.00 68 1011.5
20220521164503 88 175 4.0 9.0 0.00 0.00 0.00 68 1011.5
20220521164002 87 169 5.0 12.0 0.00 0.00 0.00 68 1011.4
20220521163503 87 168 6.0 12.0 0.00 0.00 0.00 70 1011.4
20220521163002 86 172 5.0 11.0 0.00 0.00 0.00 70 1011.4
20220521162502 86 178 4.0 8.0 0.00 0.00 0.00 69 1011.4
20220521162003 86 179 4.0 9.0 0.00 0.00 0.00 70 1011.4
20220521161502 86 181 5.0 10.0 0.00 0.00 0.00 70 1011.4
20220521161003 86 179 5.0 10.0 0.00 0.00 0.00 70 1011.4
20220521160502 86 179 4.0 10.0 0.00 0.00 0.00 70 1011.3
20220521160003 86 184 3.0 9.0 0.00 0.00 0.00 71 1011.5
20220521155502 86 186 3.0 9.0 0.00 0.00 0.00 72 1011.3
20220521155002 85 178 4.0 10.0 0.00 0.00 0.00 73 1011.2
20220521154503 85 176 5.0 11.0 0.00 0.00 0.00 73 1011.3
20220521154003 85 175 5.0 12.0 0.00 0.00 0.00 73 1011.3
20220521153502 85 178 4.0 12.0 0.00 0.00 0.00 73 1011.2
20220521153002 84 186 4.0 12.0 0.00 0.00 0.00 74 1011.1
20220521152503 84 178 5.0 13.0 0.00 0.00 0.00 75 1011.1
20220521152002 83 175 4.0 13.0 0.00 0.00 0.00 76 1011.0
20220521151503 83 182 3.0 7.0 0.00 0.00 0.00 77 1011.1
20220521151003 83 181 2.0 7.0 0.00 0.00 0.00 77 1011.2
20220521150502 82 182 2.0 6.0 0.00 0.00 0.00 78 1011.4
20220521150004 82 191 1.0 6.0 0.00 0.00 0.00 79 1011.4
20220521145503 81 211 2.0 7.0 0.00 0.00 0.00 79 1011.4
20220521145002 81 211 2.0 9.0 0.00 0.00 0.00 79 1011.6
20220521144503 81 219 2.0 9.0 0.00 0.00 0.00 79 1011.6
20220521144003 81 216 2.0 9.0 0.00 0.00 0.00 79 1011.5
20220521143502 81 213 2.0 9.0 0.00 0.00 0.00 80 1011.4
20220521143002 81 220 2.0 8.0 0.00 0.00 0.00 80 1011.2
20220521142503 80 239 2.0 9.0 0.00 0.00 0.00 80 1011.1
20220521142002 80 254 2.0 9.0 0.00 0.00 0.00 81 1011.2
20220521141503 80 224 2.0 7.0 0.00 0.00 0.00 82 1011.0
20220521141002 80 193 3.0 9.0 0.00 0.00 0.00 82 1010.6
20220521140503 80 189 3.0 9.0 0.00 0.00 0.00 82 1010.1
20220521140002 80 181 4.0 10.0 0.00 0.00 0.00 83 1009.8
20220521135503 80 177 4.0 10.0 0.00 0.00 0.00 83 1009.6
20220521135002 80 177 4.0 10.0 0.00 0.00 0.00 84 1009.3
20220521134503 80 174 5.0 11.0 0.00 0.00 0.00 84 1009.4
20220521134002 79 170 5.0 12.0 0.00 0.00 0.00 85 1009.2
20220521133502 79 167 5.0 13.0 0.00 0.00 0.00 86 1009.1
20220521133003 79 167 5.0 13.0 0.00 0.00 0.00 86 1009.0